Погода в Шатунове

Россия / Алтайский край     53°53′59″N   84°31′48″E
темп.,
°C
ветер,
м/с
пор.,
м/с
влажн.,
%
обл.,
%
осадки,
мм/ч
давл.,
гПа
погр.,
м
30 июня, чт
чт3001:00+18юв278015 0.4 993166
04:00+15з6129699 0.1 995530
07:00+11зюз511853 0.1 1000607
10:00+14зюз69600 0.0 10011139
13:00+17юз69495 0.0 10021706
16:00+19юз6104617 0.0 10022263
19:00+18юз49572 0.0 10021810
22:00+13юз22760 0.0 100313
1 июля, пт
пт101:00+11ююз22743 0.0 100313
04:00+9юз22790 0.0 100329
07:00+11юз38780 0.0 1004230
10:00+15зюз69620 0.0 10041043
13:00+18зюз685496 0.0 10041778
16:00+19зюз685764 0.1 10051730
19:00+17зюз476998 0.3 1005823
22:00+14юз3963100 0.1 1006413
2 июля, сб
сб201:00+13зюз496480 0.1 1006460
04:00+12юз3870100 0.0 1007327
07:00+12юз4108197 0.0 1007435
10:00+13зюз5784100 0.2 1008681
13:00+15зюз687885 0.4 1008770
16:00+18зюз686174 0.2 10081403
19:00+16з498498 1.1 1008523
22:00+13зюз239058 0.4 100852
3 июля, вс
вс301:00+11зюз229298 0.4 100925
04:00+10юз229249 0.0 100912
07:00+11юз129130 0.1 100995
10:00+16зюз468360 1.3 1008386
13:00+19з45626 2.2 10081216
16:00+20зюз555941 0.3 10071519
19:00+20з23604 0.6 10071137
22:00+16всв11724 0.0 100711
4 июля, пн
пн401:00+12юв229017 0.2 100712
04:00+10в22915 0.0 100511
07:00+13в128897 0.0 100572
10:00+18вюв2367100 0.0 1003474
13:00+20юв2258100 0.0 1002785
16:00+20ююз4359100 0.2 10001053
19:00+20ююз11635 0.3 999646
22:00+15зсз118546 0.1 99811